Location: Home
(42.5358°N, 72.7383°W)
Time: 09:38:01
(UTC-04:00)

Kosmos-337 - Pass Details

Date: 09 July 2022
Orbit: 1467 x 1552 km, 74.0° (Epoch: 16 August)

Event Time Altitude Azimuth Distance (km) Brightness Sun altitude
Rises 00:25:54 0° 341° (NNW) 4,732 ? -24.7°
Reaches altitude 10° 00:29:01 10° 346° (NNW) 3,743 ? -24.8°
Maximum altitude 00:37:58 54° 63° (ENE) 1,815 ? -25.0°
Enters shadow 00:43:19 26° 129° (SE) 2,666 ? -25.0°
